Volver al catálogo

THOR ABLESTAR DEB

ActivoLEO
NORAD 158·DEBRIS·🇺🇸 United States

Lanzado Jun 29, 1961 desde Cape Canaveral Space Force Station

Loading…

Próximos Pases (próximas 24 horas)

TLE

ActualizadoSource: Space-Track

Época: Sep 14, 2026, 15:35 UTC

1 00158U 61015AU  26257.64998085  .00000171  00000-0  57081-3 0  9991
2 00158  67.0758  38.0608 0611038 190.0231 168.8131 12.66263198 16547

Sigue THOR ABLESTAR DEB en tiempo real con AllMySat

Download on the App Store